Weather History for KJNX - June, 2014

Change the Weather History Date:

Friday, June 13, 2014

  Actual Average Record
Temperature  
Mean Temperature 76 °F -  
Max Temperature 87 °F 86 °F 99 °F (1957)
Min Temperature 66 °F 61 °F 46 °F (1980)
Cooling Degree Days 12    
Growing Degree Days 26 (Base 50)    
Moisture  
Dew Point 69 °F    
Average Humidity 81    
Maximum Humidity 100    
Minimum Humidity 51    
Precipitation  
Precipitation 0.18 in - - ()
Sea Level Pressure  
Sea Level Pressure 29.84 in    
Wind  
Wind Speed 3 mph (SW)    
Max Wind Speed 9 mph    
Max Gust Speed 24 mph    
Visibility 9 miles    
Events Thunderstorm    
Averages and records for this station are not official NWS values.
T = Trace of Precipitation, MM = Missing Value Source: NWS Daily Summary

Daily Weather History Graph

Daily Weather History Graph

Search for Another Location

Airport or City:

Trip Planner

Search our weather history database for the weather conditions in past years. The results will help you decide how hot, cold, wet, or windy it might be!

Date:

Astronomy

Jun. 13, 2014 Rise Set
Actual Time 5:57 AM EDT 8:29 PM EDT
Civil Twilight 5:27 AM EDT 8:59 PM EDT
Nautical Twilight 4:50 AM EDT 9:36 PM EDT
Astronomical Twilight 4:09 AM EDT 10:18 PM EDT
Moon 9:01 PM EDT (6/13) 6:32 AM EDT (6/13)
Length of Visible Light 15h 32m
Length of Day
14h 32m
Full, 100% of the Moon is Illuminated
Jun 13
Full
Jun 19
Last Quarter
Jun 27
New
Jul 5
First Quarter
Jul 12
Full

Hourly Weather History & Observations

Time (EDT) Temp. Heat Index Dew Point Humidity Pressure Visibility Wind Dir Wind Speed Gust Speed Precip Events Conditions
12:15 AM 71.6 °F - 69.8 °F 94% 29.87 in 10.0 mi Calm Calm - N/A   Overcast
12:35 AM 71.6 °F - 69.8 °F 94% 29.86 in 10.0 mi Calm Calm - N/A   Overcast
12:55 AM 71.6 °F - 69.8 °F 94% 29.85 in 10.0 mi Calm Calm - N/A   Mostly Cloudy
1:15 AM 71.6 °F - 69.8 °F 94% 29.85 in 10.0 mi SSW 4.6 mph - N/A   Mostly Cloudy
1:35 AM 71.6 °F - 69.8 °F 94% 29.84 in 10.0 mi South 4.6 mph - N/A   Mostly Cloudy
1:55 AM 69.8 °F - 69.8 °F 100% 29.84 in 10.0 mi Calm Calm - N/A   Scattered Clouds
2:15 AM 69.8 °F - 69.8 °F 100% 29.84 in 10.0 mi SSW 3.5 mph - N/A   Clear
2:35 AM 69.8 °F - 68.0 °F 94% 29.84 in 7.0 mi SSW 3.5 mph - N/A   Clear
2:55 AM 69.8 °F - 69.8 °F 100% 29.84 in 10.0 mi Calm Calm - N/A   Clear
3:15 AM 69.8 °F - 68.0 °F 94% 29.83 in 10.0 mi Calm Calm - N/A   Clear
3:35 AM 69.8 °F - 68.0 °F 94% 29.83 in 7.0 mi SSW 3.5 mph - N/A   Clear
3:55 AM 68.0 °F - 68.0 °F 100% 29.83 in 3.0 mi SSW 4.6 mph - N/A   Clear
4:15 AM 68.0 °F - 68.0 °F 100% 29.83 in 5.0 mi Calm Calm - N/A   Clear
4:35 AM 68.0 °F - 68.0 °F 100% 29.83 in 1.2 mi Calm Calm - N/A   Unknown
4:55 AM 68.0 °F - 68.0 °F 100% 29.83 in 3.0 mi Calm Calm - N/A   Clear
5:15 AM 68.0 °F - 66.2 °F 94% 29.83 in 4.0 mi Calm Calm - N/A   Clear
5:35 AM 66.2 °F - 66.2 °F 100% 29.84 in 0.8 mi South 3.5 mph - N/A   Mostly Cloudy
5:55 AM 66.2 °F - 66.2 °F 100% 29.84 in 0.8 mi Calm Calm - N/A   Mostly Cloudy
6:15 AM 66.2 °F - 66.2 °F 100% 29.85 in 2.5 mi Calm Calm - N/A   Clear
6:35 AM 68.0 °F - 66.2 °F 94% 29.85 in 4.0 mi Calm Calm - N/A   Clear
6:55 AM 68.0 °F - 68.0 °F 100% 29.85 in 5.0 mi South 3.5 mph - N/A   Clear
7:15 AM 69.8 °F - 68.0 °F 94% 29.85 in 10.0 mi South 6.9 mph - N/A   Clear
7:35 AM 69.8 °F - 68.0 °F 94% 29.86 in 10.0 mi South 5.8 mph - N/A   Clear
7:55 AM 71.6 °F - 68.0 °F 88% 29.86 in 10.0 mi SSW 5.8 mph - N/A   Clear
8:15 AM 71.6 °F - 69.8 °F 94% 29.87 in 10.0 mi SSW 5.8 mph - N/A   Clear
8:35 AM 71.6 °F - 68.0 °F 88% 29.87 in 10.0 mi SW 5.8 mph - N/A   Clear
8:55 AM 73.4 °F - 69.8 °F 88% 29.87 in 10.0 mi SW 3.5 mph - N/A   Scattered Clouds
9:15 AM 75.2 °F - 69.8 °F 83% 29.87 in 10.0 mi SSW 4.6 mph - N/A   Scattered Clouds
9:35 AM 77.0 °F - 69.8 °F 78% 29.87 in 10.0 mi West 5.8 mph - N/A   Clear
9:55 AM 77.0 °F - 69.8 °F 78% 29.87 in 10.0 mi SW 3.5 mph - N/A   Clear
10:15 AM 78.8 °F - 69.8 °F 74% 29.87 in 10.0 mi WSW 3.5 mph - N/A   Scattered Clouds
10:35 AM 78.8 °F - 69.8 °F 74% 29.87 in 10.0 mi SW 4.6 mph - N/A   Scattered Clouds
10:55 AM 78.8 °F - 69.8 °F 74% 29.86 in 10.0 mi Calm Calm - N/A   Scattered Clouds
11:15 AM 80.6 °F 83.9 °F 69.8 °F 70% 29.87 in 10.0 mi SW 5.8 mph - N/A   Mostly Cloudy
11:35 AM 82.4 °F 86.3 °F 69.8 °F 66% 29.87 in 10.0 mi WSW 5.8 mph - N/A   Mostly Cloudy
11:55 AM 80.6 °F 83.9 °F 69.8 °F 70% 29.86 in 10.0 mi WSW 4.6 mph - N/A   Scattered Clouds
12:15 PM 82.4 °F 86.3 °F 69.8 °F 66% 29.86 in 10.0 mi WSW 6.9 mph - N/A   Scattered Clouds
12:35 PM 82.4 °F 86.3 °F 69.8 °F 66% 29.85 in 10.0 mi SW 3.5 mph - N/A   Mostly Cloudy
12:55 PM 82.4 °F 86.3 °F 69.8 °F 66% 29.85 in 10.0 mi West 5.8 mph - N/A   Scattered Clouds
1:15 PM 82.4 °F 86.3 °F 69.8 °F 66% 29.85 in 10.0 mi SSW 9.2 mph 16.1 mph N/A   Scattered Clouds
1:35 PM 82.4 °F 85.4 °F 68.0 °F 62% 29.85 in 10.0 mi SW 9.2 mph - N/A   Scattered Clouds
1:55 PM 80.6 °F 83.9 °F 69.8 °F 70% 29.83 in 10.0 mi SSW 5.8 mph - N/A   Scattered Clouds
2:15 PM 82.4 °F 86.3 °F 69.8 °F 66% 29.83 in 10.0 mi SSW 6.9 mph - N/A   Scattered Clouds
2:35 PM 82.4 °F 86.3 °F 69.8 °F 66% 29.82 in 10.0 mi SW 4.6 mph - N/A   Scattered Clouds
2:55 PM 86.0 °F 90.4 °F 69.8 °F 58% 29.81 in 10.0 mi SSW 3.5 mph - N/A   Scattered Clouds
3:15 PM 84.2 °F 88.4 °F 69.8 °F 62% 29.80 in 10.0 mi SW 4.6 mph - N/A   Mostly Cloudy
3:35 PM 84.2 °F 88.4 °F 69.8 °F 62% 29.80 in 10.0 mi SW 3.5 mph - N/A   Mostly Cloudy
3:55 PM 86.0 °F 89.4 °F 68.0 °F 55% 29.80 in 10.0 mi WSW 5.8 mph - N/A   Scattered Clouds
4:15 PM 86.0 °F 89.4 °F 68.0 °F 55% 29.79 in 10.0 mi West 3.5 mph - N/A   Scattered Clouds
4:55 PM 87.8 °F 91.4 °F 68.0 °F 52% 29.79 in 10.0 mi SW 5.8 mph - N/A   Scattered Clouds
5:15 PM 86.0 °F 88.2 °F 66.2 °F 51% 29.79 in 10.0 mi SW 3.5 mph - N/A   Scattered Clouds
5:55 PM 86.0 °F 89.4 °F 68.0 °F 55% 29.79 in 10.0 mi SSW 5.8 mph - N/A   Mostly Cloudy
6:35 PM 86.0 °F 89.4 °F 68.0 °F 55% 29.79 in 10.0 mi Calm Calm - N/A   Clear
6:55 PM 86.0 °F 89.4 °F 68.0 °F 55% 29.80 in 10.0 mi Calm Calm - N/A   Clear
7:15 PM 84.2 °F 88.4 °F 69.8 °F 62% 29.79 in 10.0 mi Calm Calm - N/A   Scattered Clouds
7:35 PM 82.4 °F 85.4 °F 68.0 °F 62% 29.80 in 10.0 mi SW 3.5 mph - N/A   Scattered Clouds
7:55 PM 80.6 °F 83.2 °F 68.0 °F 65% 29.80 in 10.0 mi Calm Calm - N/A Thunderstorm Clear
8:15 PM 78.8 °F - 69.8 °F 74% 29.81 in 10.0 mi Calm Calm - N/A   Scattered Clouds
8:35 PM 77.0 °F - 71.6 °F 83% 29.81 in 10.0 mi Calm Calm - N/A   Mostly Cloudy
8:55 PM 77.0 °F - 71.6 °F 83% 29.82 in 10.0 mi Calm Calm - N/A   Mostly Cloudy
9:15 PM 77.0 °F - 71.6 °F 83% 29.83 in 10.0 mi Calm Calm - N/A Thunderstorm Overcast
9:35 PM 73.4 °F - 68.0 °F 83% 29.85 in 3.0 mi WNW 4.6 mph 24.2 mph 0.11 in Thunderstorm Thunderstorm
9:55 PM 71.6 °F - 69.8 °F 94% 29.86 in 10.0 mi WSW 4.6 mph - 0.16 in Thunderstorm Thunderstorm
10:15 PM 71.6 °F - 69.8 °F 94% 29.85 in 7.0 mi South 6.9 mph - 0.01 in Thunderstorm Thunderstorm
10:35 PM 71.6 °F - 68.0 °F 88% 29.85 in 10.0 mi South 4.6 mph - 0.01 in Thunderstorm Overcast
10:55 PM 69.8 °F - 69.8 °F 100% 29.85 in 10.0 mi Calm Calm - 0.02 in   Scattered Clouds
11:15 PM 69.8 °F - 69.8 °F 100% 29.86 in 5.0 mi NE 3.5 mph - N/A   Clear
11:35 PM 69.8 °F - 69.8 °F 100% 29.87 in 10.0 mi Calm Calm - N/A   Clear
11:55 PM 69.8 °F - 69.8 °F 100% 29.88 in 7.0 mi Calm Calm - N/A   Clear